EW7738 Weather Reports


time (UTC)temp
C
wind
direction
speed
KPH
gust
KPH
rain 1hr
cm
rain 24hr
cm
rain mn
cm
humidity
%
barometer
mb
20211017161304 13 325 0.0 0.0 0.00 0.38 0.00 62 1012.6
20211017160803 13 336 0.0 0.0 0.00 0.38 0.00 62 1012.5
20211017160304 13 329 0.0 0.0 0.00 0.38 0.00 62 1012.7
20211017155804 13 323 0.0 0.0 0.00 0.38 0.00 62 1012.7
20211017155306 13 300 0.0 0.0 0.00 0.38 0.00 63 1012.8
20211017154803 13 286 0.0 0.0 0.00 0.38 0.00 64 1012.8
20211017154303 13 336 0.0 0.0 0.00 0.38 0.00 64 1012.9
20211017153804 13 344 0.0 0.0 0.00 0.38 0.00 65 1012.9
20211017153303 13 308 0.0 0.0 0.00 0.38 0.00 65 1012.9
20211017152804 13 13 0.0 0.0 0.00 0.38 0.00 66 1012.9
20211017152306 13 316 0.0 0.0 0.00 0.38 0.00 65 1013.0
20211017151804 13 296 0.0 0.0 0.00 0.38 0.00 66 1013.0
20211017151303 13 302 0.0 0.0 0.00 0.38 0.00 64 1013.0
20211017150803 13 328 0.0 0.0 0.00 0.38 0.00 67 1013.0
20211017150303 13 349 0.0 0.0 0.00 0.38 0.00 66 1012.9
20211017145803 13 306 0.0 0.0 0.00 0.38 0.00 66 1013.0
20211017145306 13 25 0.0 0.0 0.00 0.38 0.00 68 1013.1
20211017144803 12 309 0.0 0.0 0.00 0.38 0.00 68 1013.1
20211017144303 12 45 0.0 0.0 0.00 0.38 0.00 69 1013.2
20211017143804 12 323 0.0 0.0 0.00 0.38 0.00 69 1013.2
20211017143304 12 342 0.0 0.0 0.00 0.38 0.00 70 1013.3
20211017142804 12 333 0.0 0.0 0.00 0.38 0.00 70 1013.3
20211017142305 12 315 0.0 0.0 0.00 0.38 0.00 72 1013.3
20211017141803 12 280 0.0 0.0 0.00 0.38 0.00 74 1013.4
20211017141304 11 319 0.0 0.0 0.00 0.38 0.00 73 1013.3
20211017140804 11 271 0.0 0.0 0.00 0.38 0.00 73 1013.3
20211017140303 11 320 0.0 0.0 0.00 0.38 0.00 73 1013.4
20211017135804 11 299 0.0 0.0 0.00 0.38 0.00 72 1013.3
20211017135305 11 290 0.0 0.0 0.00 0.38 0.00 73 1013.3
20211017134804 11 278 0.0 0.0 0.00 0.38 0.00 72 1013.3
20211017134304 11 318 0.0 0.0 0.00 0.38 0.00 73 1013.3
20211017133804 11 294 0.0 0.0 0.00 0.38 0.00 73 1013.3
20211017133304 11 280 0.0 0.0 0.00 0.38 0.00 74 1013.2
20211017132803 11 272 0.0 0.0 0.00 0.38 0.00 75 1013.3
20211017132305 11 275 0.0 0.0 0.00 0.38 0.00 76 1013.2
20211017131804 11 292 0.0 0.0 0.00 0.38 0.00 76 1013.3
20211017131303 10 289 0.0 0.0 0.00 0.38 0.00 77 1013.3
20211017130804 10 310 0.0 0.0 0.00 0.38 0.00 78 1013.3
20211017130303 10 287 0.0 0.0 0.00 0.38 0.00 79 1013.3
20211017125804 10 291 0.0 0.0 0.00 0.38 0.00 81 1013.2
20211017125306 10 252 0.0 0.0 0.00 0.38 0.00 81 1013.2
20211017124803 10 242 0.0 0.0 0.00 0.38 0.00 81 1013.2
20211017124303 9 249 0.0 0.0 0.00 0.38 0.00 82 1013.2
20211017123803 9 263 0.0 0.0 0.00 0.38 0.00 82 1013.2
20211017123303 9 248 0.0 0.0 0.00 0.38 0.00 83 1013.0
20211017122804 9 261 0.0 0.0 0.00 0.38 0.00 83 1013.0
20211017122306 9 261 0.0 0.0 0.00 0.38 0.00 83 1013.0
20211017121804 8 254 0.0 0.0 0.00 0.38 0.00 83 1012.9
20211017121304 8 259 0.0 0.0 0.00 0.38 0.00 83 1012.9
20211017120803 8 244 0.0 0.0 0.00 0.38 0.00 83 1012.9
20211017120304 8 246 0.0 0.0 0.00 0.38 0.00 83 1012.8
20211017115804 8 235 0.0 0.0 0.00 0.38 0.00 83 1012.8
20211017115306 8 253 0.0 0.0 0.00 0.38 0.00 83 1012.7
20211017114803 8 245 0.0 0.0 0.00 0.38 0.00 83 1012.6
20211017114303 8 251 0.0 0.0 0.00 0.38 0.00 83 1012.6
20211017113803 8 264 0.0 0.0 0.00 0.38 0.00 83 1012.6
20211017113304 8 250 0.0 0.0 0.00 0.38 0.00 83 1012.6
20211017112804 8 259 0.0 0.0 0.00 0.38 0.00 83 1012.5
20211017112305 8 251 0.0 0.0 0.00 0.38 0.00 82 1012.5
20211017111804 8 255 0.0 0.0 0.00 0.38 0.00 82 1012.5
20211017111304 9 251 0.0 0.0 0.00 0.38 0.00 82 1012.4
20211017110804 9 241 0.0 0.0 0.00 0.38 0.00 82 1012.4
20211017110304 9 247 0.0 0.0 0.00 0.38 0.00 82 1012.5
20211017105804 9 256 0.0 0.0 0.00 0.38 0.00 82 1012.4
20211017105306 9 250 0.0 0.0 0.00 0.38 0.00 81 1012.3
20211017104804 9 243 0.0 0.0 0.00 0.38 0.00 81 1012.4
20211017104304 9 248 0.0 0.0 0.00 0.38 0.00 81 1012.4
20211017103804 9 243 0.0 0.0 0.00 0.38 0.00 81 1012.4
20211017103303 9 244 0.0 0.0 0.00 0.38 0.00 81 1012.3
20211017102804 9 272 0.0 0.0 0.00 0.38 0.00 80 1012.3
20211017102306 9 257 0.0 0.0 0.00 0.38 0.00 80 1012.3
20211017101804 10 242 0.0 0.0 0.00 0.38 0.00 80 1012.3
20211017101304 10 235 0.0 0.0 0.00 0.38 0.00 79 1012.2
20211017100804 10 229 0.0 0.0 0.00 0.38 0.00 79 1012.2
20211017100303 10 225 0.0 0.0 0.00 0.38 0.00 79 1012.1
20211017095803 10 246 0.0 0.0 0.00 0.38 0.00 79 1012.0
20211017095306 10 260 0.0 0.0 0.00 0.38 0.00 79 1012.0
20211017094803 10 260 0.0 0.0 0.00 0.38 0.00 78 1012.0
20211017094304 10 265 0.0 0.0 0.00 0.38 0.00 79 1012.0
20211017093804 10 266 0.0 0.0 0.00 0.38 0.00 78 1012.1
20211017093303 10 262 0.0 0.0 0.00 0.38 0.00 78 1012.1
20211017092804 10 268 0.0 0.0 0.00 0.38 0.00 79 1012.0
20211017092306 10 254 0.0 0.0 0.00 0.38 0.00 79 1012.0
20211017091804 10 266 0.0 0.0 0.00 0.38 0.00 79 1011.9
20211017091304 10 273 0.0 0.0 0.00 0.38 0.00 79 1011.9
20211017090803 10 250 0.0 0.0 0.00 0.38 0.00 79 1011.9
20211017090303 10 273 0.0 0.0 0.00 0.38 0.00 79 1011.8
20211017085803 10 284 0.0 0.0 0.00 0.38 0.00 79 1011.8
20211017085305 10 285 0.0 0.0 0.00 0.38 0.00 79 1011.8
20211017084803 10 276 0.0 0.0 0.00 0.38 0.00 79 1011.9
20211017084304 10 270 0.0 0.0 0.00 0.38 0.00 79 1011.8
20211017083804 10 253 0.0 0.0 0.00 0.38 0.00 79 1011.7
20211017083304 10 252 0.0 0.0 0.00 0.38 0.00 79 1011.8
20211017082803 10 264 0.0 0.0 0.00 0.38 0.00 79 1011.7
20211017082305 10 254 0.0 0.0 0.00 0.38 0.00 79 1011.7
20211017081803 10 255 0.0 0.0 0.00 0.38 0.00 79 1011.7
20211017081304 10 271 0.0 0.0 0.00 0.38 0.00 79 1011.8
20211017080804 10 245 0.0 0.0 0.00 0.38 0.00 79 1011.8
20211017080303 10 255 0.0 0.0 0.00 0.38 0.00 79 1011.8
20211017075804 10 248 0.0 0.0 0.00 0.38 0.00 79 1011.7
20211017075306 10 245 0.0 0.0 0.00 0.38 0.00 79 1011.7
20211017074803 10 245 0.0 0.0 0.00 0.38 0.00 79 1011.7
20211017074304 10 238 0.0 0.0 0.00 0.38 0.00 79 1011.7
20211017073803 10 273 0.0 0.0 0.00 0.38 0.00 79 1011.7
20211017073303 10 259 0.0 0.0 0.00 0.38 0.00 79 1011.7
20211017072804 10 271 0.0 0.0 0.00 0.38 0.00 79 1011.8
20211017072305 10 246 0.0 0.0 0.00 0.38 0.00 79 1011.8
20211017071804 10 268 0.0 0.0 0.00 0.38 0.00 79 1011.8
20211017071304 10 276 0.0 0.0 0.00 0.38 0.00 79 1011.8
20211017070803 10 260 0.0 0.0 0.00 0.38 0.00 79 1011.8
20211017070304 10 260 0.0 0.0 0.00 0.38 0.00 79 1011.8
20211017065804 10 260 0.0 0.0 0.00 0.38 0.00 79 1011.8
20211017065305 10 260 0.0 0.0 0.00 0.38 0.00 78 1011.8
20211017064804 10 244 0.0 0.0 0.00 0.38 0.00 79 1011.8
20211017064303 10 254 0.0 0.0 0.00 0.38 0.00 78 1011.8
20211017063803 10 240 0.0 0.0 0.00 0.38 0.00 78 1011.7
20211017063303 10 239 0.0 0.0 0.00 0.38 0.00 78 1011.7
20211017062803 10 239 0.0 0.0 0.00 0.38 0.00 78 1011.7
20211017062307 10 239 0.0 0.0 0.00 0.38 0.00 78 1011.8
20211017061804 10 257 0.0 0.0 0.00 0.38 0.00 78 1011.8
20211017061303 10 257 0.0 0.0 0.00 0.38 0.00 78 1011.8
20211017060803 10 257 0.0 0.0 0.00 0.38 0.00 78 1011.8
20211017060304 10 257 0.0 0.0 0.00 0.38 0.00 79 1011.7
20211017055804 11 257 0.0 0.0 0.00 0.38 0.00 79 1011.6
20211017055306 11 257 0.0 0.0 0.00 0.38 0.00 78 1011.7
20211017054803 11 257 0.0 0.0 0.00 0.38 0.00 78 1011.7
20211017054303 11 257 0.0 0.0 0.00 0.38 0.00 78 1011.7
20211017053804 11 257 0.0 0.0 0.00 0.38 0.00 78 1011.6
20211017053303 11 257 0.0 0.0 0.00 0.38 0.00 78 1011.6
20211017052804 11 270 0.0 0.0 0.00 0.38 0.00 77 1011.6
20211017052305 11 304 0.0 0.0 0.00 0.38 0.00 77 1011.6
20211017051804 11 304 0.0 0.0 0.00 0.38 0.00 77 1011.6
20211017051304 11 304 0.0 0.0 0.00 0.38 0.00 76 1011.6
20211017050803 11 287 0.0 0.0 0.00 0.38 0.00 76 1011.6
20211017050304 11 289 0.0 0.0 0.00 0.38 0.00 76 1011.6
20211017045804 11 265 0.0 0.0 0.00 0.38 0.00 76 1011.6
20211017045306 11 276 0.0 0.0 0.00 0.38 0.00 77 1011.6
20211017044804 11 268 0.0 0.0 0.00 0.38 0.00 77 1011.6
20211017044304 11 261 0.0 0.0 0.00 0.38 0.00 77 1011.6
20211017043803 11 276 0.0 0.0 0.00 0.38 0.00 77 1011.6
20211017043304 11 271 0.0 0.0 0.00 0.38 0.00 78 1011.6
20211017042804 11 285 0.0 0.0 0.00 0.38 0.00 78 1011.6
20211017042305 11 271 0.0 0.0 0.00 0.38 0.00 78 1011.6
20211017041804 11 280 0.0 0.0 0.00 0.38 0.00 79 1011.6
20211017041303 11 286 0.0 0.0 0.00 0.38 0.00 78 1011.6
20211017040817 11 248 0.0 0.0 0.00 0.38 0.00 79 1011.6
20211017040303 11 248 0.0 0.0 0.00 0.38 0.00 79 1011.5
20211017035804 11 225 0.0 0.0 0.00 0.38 0.38 79 1011.5
20211017035305 11 253 0.0 0.0 0.00 0.38 0.38 79 1011.6
20211017034804 11 251 0.0 0.0 0.00 0.38 0.38 79 1011.6
20211017034304 11 259 0.0 0.0 0.00 0.38 0.38 79 1011.7
20211017033804 11 267 0.0 0.0 0.00 0.38 0.38 78 1011.7
20211017033303 11 242 0.0 0.0 0.00 0.38 0.38 78 1011.7
20211017032803 11 259 0.0 0.0 0.00 0.38 0.38 77 1011.7
20211017032305 11 267 0.0 0.0 0.00 0.38 0.38 77 1011.7
20211017031804 11 249 0.0 0.0 0.00 0.38 0.38 77 1011.7
20211017031304 11 324 0.0 0.0 0.00 0.38 0.38 77 1011.7
20211017030804 11 329 0.0 0.0 0.00 0.38 0.38 76 1011.6
20211017030303 12 329 0.0 0.0 0.00 0.38 0.38 76 1011.5
20211017025804 12 358 0.0 0.0 0.00 0.38 0.38 76 1011.5
20211017025305 12 348 0.0 0.0 0.00 0.38 0.38 76 1011.5
20211017024803 12 327 0.0 0.0 0.00 0.38 0.38 76 1011.5
20211017024303 12 343 0.0 0.0 0.00 0.38 0.38 76 1011.5
20211017023803 12 331 0.0 0.0 0.00 0.38 0.38 75 1011.4
20211017023304 12 13 0.0 0.0 0.00 0.38 0.38 75 1011.4
20211017022804 12 351 0.0 0.0 0.00 0.38 0.38 75 1011.4
20211017022306 12 15 0.0 0.0 0.00 0.38 0.38 75 1011.5
20211017021804 12 20 0.0 0.0 0.00 0.38 0.38 75 1011.6
20211017021303 12 19 0.0 0.0 0.00 0.38 0.38 74 1011.6
20211017020803 12 357 0.0 0.0 0.00 0.38 0.38 74 1011.4
20211017020303 12 12 0.0 0.0 0.00 0.38 0.38 73 1011.3
20211017015803 12 346 0.0 0.0 0.00 0.38 0.38 73 1011.2
20211017015305 12 355 0.0 0.0 0.00 0.38 0.38 72 1011.2
20211017014803 12 325 0.0 0.0 0.00 0.38 0.38 73 1011.1
20211017014304 12 323 0.0 0.0 0.00 0.38 0.38 73 1011.1
20211017013804 12 346 0.0 0.0 0.00 0.38 0.38 72 1011.0
20211017013304 13 5 0.0 0.0 0.00 0.38 0.38 73 1011.1
20211017012804 13 348 0.0 0.0 0.00 0.38 0.38 72 1010.9
20211017012305 13 349 0.0 0.0 0.00 0.38 0.38 72 1010.8
20211017011804 13 347 0.0 0.0 0.00 0.38 0.38 72 1010.7
20211017011304 13 22 0.0 0.0 0.00 0.38 0.38 72 1010.5
20211017010804 13 15 0.0 0.0 0.00 0.38 0.38 72 1010.5
20211017010304 13 342 0.0 0.0 0.00 0.38 0.38 74 1010.5
20211017005803 13 327 0.0 0.0 0.00 0.38 0.38 75 1010.4
20211017005305 13 6 0.0 0.0 0.00 0.38 0.38 75 1010.3
20211017004803 13 12 0.0 0.0 0.00 0.38 0.38 75 1010.2
20211017004303 13 339 0.0 0.0 0.00 0.38 0.38 75 1010.1
20211017003803 13 359 0.0 0.0 0.00 0.38 0.38 76 1010.2
20211017003304 13 341 0.0 0.0 0.00 0.38 0.38 75 1010.0
20211017002804 13 356 0.0 0.0 0.00 0.38 0.38 75 1009.7
20211017002306 13 333 0.0 0.0 0.00 0.38 0.38 75 1009.8
20211017001803 13 351 0.0 0.0 0.00 0.38 0.38 75 1009.6
20211017001303 13 334 0.0 1.6 0.00 0.38 0.38 75 1009.7
20211017000804 13 17 0.0 0.0 0.00 0.38 0.38 78 1009.6
20211017000303 13 345 0.0 0.0 0.00 0.38 0.38 79 1009.4
20211016235803 13 346 0.0 0.0 0.00 0.38 0.38 80 1009.2
20211016235307 13 324 0.0 0.0 0.00 0.38 0.38 81 1009.0
20211016234804 13 353 0.0 0.0 0.00 0.38 0.38 82 1009.1
20211016234304 13 4 0.0 0.0 0.00 0.38 0.38 83 1008.9
20211016233804 13 316 0.0 0.0 0.00 0.38 0.38 83 1009.0
20211016233303 14 339 0.0 0.0 0.00 0.38 0.38 85 1009.0
20211016232804 14 329 0.0 0.0 0.03 0.38 0.38 86 1008.9
20211016232305 14 23 0.0 0.0 0.03 0.38 0.38 86 1008.8
20211016231804 14 1 0.0 0.0 0.03 0.38 0.38 87 1008.4
20211016231303 14 310 0.0 0.0 0.03 0.38 0.38 86 1008.7
20211016230804 14 25 0.0 0.0 0.03 0.38 0.38 87 1008.4
20211016230303 14 337 0.0 0.0 0.03 0.38 0.38 88 1008.3
20211016225803 14 354 0.0 0.0 0.03 0.38 0.38 88 1008.4
20211016225305 14 5 0.0 0.0 0.03 0.38 0.38 88 1008.4
20211016224803 14 17 0.0 0.0 0.05 0.38 0.38 88 1008.3
20211016224303 15 355 0.0 0.0 0.08 0.38 0.38 88 1008.0
20211016223803 15 347 0.0 0.0 0.13 0.38 0.38 89 1007.7
20211016223304 15 332 0.0 0.0 0.15 0.38 0.38 89 1007.9
20211016222804 15 358 0.0 0.0 0.15 0.36 0.36 91 1007.7
20211016222306 15 18 0.0 0.0 0.15 0.36 0.36 92 1007.5
20211016221804 15 7 0.0 0.0 0.18 0.36 0.36 93 1007.5
20211016221304 15 42 0.0 0.0 0.20 0.36 0.36 92 1007.3
20211016220804 15 342 0.0 0.0 0.23 0.36 0.36 92 1007.1
20211016220304 16 0 0.0 0.0 0.25 0.36 0.36 92 1007.0
20211016215803 16 355 0.0 0.0 0.28 0.36 0.36 92 1006.9
20211016215305 16 28 0.0 0.0 0.28 0.36 0.36 92 1006.4
20211016214804 16 19 0.0 0.0 0.25 0.33 0.33 92 1006.3
20211016214304 16 357 0.0 0.0 0.23 0.30 0.30 93 1006.7
20211016213804 16 319 0.0 0.0 0.20 0.28 0.28 93 1006.9
20211016213304 16 345 0.0 0.0 0.15 0.23 0.23 93 1006.6
20211016212803 16 339 0.0 0.0 0.15 0.20 0.20 93 1006.6
20211016212305 16 314 0.0 0.0 0.15 0.20 0.20 93 1006.6
20211016211803 16 350 0.0 0.0 0.15 0.18 0.18 93 1006.3
20211016211303 16 357 0.0 0.0 0.15 0.15 0.15 93 1006.3
20211016210803 16 303 0.0 0.0 0.13 0.13 0.13 93 1006.0
20211016210304 16 305 0.0 0.0 0.10 0.10 0.10 93 1006.1
20211016205804 16 284 0.0 0.0 0.08 0.08 0.08 93 1006.3
20211016205306 16 276 0.0 0.0 0.08 0.08 0.08 93 1006.0
20211016204803 16 279 0.0 0.0 0.08 0.08 0.08 93 1005.6
20211016204304 16 315 0.0 0.0 0.08 0.08 0.08 93 1005.4
20211016203804 16 19 0.0 0.0 0.08 0.08 0.08 92 1005.3
20211016203304 16 286 0.0 0.0 0.08 0.08 0.08 92 1005.3
20211016202803 16 271 0.0 0.0 0.05 0.05 0.05 92 1005.4
20211016202305 16 297 0.0 0.0 0.05 0.05 0.05 91 1005.7
20211016201804 16 300 0.0 0.0 0.03 0.03 0.03 91 1005.9
20211016201304 16 281 0.0 0.0 0.00 0.00 0.00 91 1005.9
20211016200804 16 255 0.0 0.0 0.00 0.00 0.00 90 1006.1
20211016200304 16 270 0.0 0.0 0.00 0.00 0.00 90 1005.8
20211016195804 17 281 0.0 0.0 0.00 0.00 0.00 90 1005.5
20211016195306 17 290 0.0 0.0 0.00 0.00 0.00 90 1004.9
20211016194804 17 355 0.0 0.0 0.00 0.00 0.00 90 1004.6
20211016194304 17 248 0.0 0.0 0.00 0.00 0.00 89 1004.6
20211016193804 17 305 0.0 0.0 0.00 0.00 0.00 89 1004.6
20211016193304 17 304 0.0 0.0 0.00 0.00 0.00 88 1004.9
20211016192804 17 290 0.0 0.0 0.00 0.00 0.00 87 1004.9
20211016192306 17 280 0.0 0.0 0.00 0.00 0.00 86 1005.0
20211016191804 17 281 0.0 0.0 0.00 0.00 0.00 85 1005.1
20211016191304 17 314 0.0 0.0 0.00 0.00 0.00 84 1005.2
20211016190804 18 288 0.0 0.0 0.00 0.00 0.00 82 1005.2
20211016190303 18 286 0.0 0.0 0.00 0.00 0.00 80 1005.1
20211016185804 18 294 0.0 0.0 0.00 0.00 0.00 78 1005.1
20211016185306 18 290 0.0 0.0 0.00 0.00 0.00 76 1004.9
20211016184804 19 314 0.0 0.0 0.00 0.00 0.00 74 1004.5
20211016184303 19 303 0.0 0.0 0.00 0.00 0.00 73 1004.3
20211016183803 19 241 0.0 0.0 0.00 0.00 0.00 73 1004.4
20211016183304 19 313 0.0 0.0 0.00 0.00 0.00 72 1004.3
20211016182805 20 307 0.0 0.0 0.00 0.00 0.00 73 1004.2
20211016182306 20 344 0.0 0.0 0.00 0.00 0.00 74 1003.9
20211016181804 20 344 0.0 0.0 0.00 0.00 0.00 74 1004.0
20211016181304 20 331 0.0 0.0 0.00 0.00 0.00 73 1003.9
20211016180804 20 344 0.0 0.0 0.00 0.00 0.00 74 1003.9
20211016180303 20 290 0.0 0.0 0.00 0.00 0.00 74 1003.8
20211016175804 20 264 0.0 0.0 0.00 0.00 0.00 75 1003.8
20211016175306 20 320 0.0 0.0 0.00 0.00 0.00 74 1003.9
20211016174804 20 320 0.0 0.0 0.00 0.00 0.00 74 1004.0
20211016174304 20 316 0.0 0.0 0.00 0.00 0.00 74 1004.1
20211016173805 21 291 0.0 0.0 0.00 0.00 0.00 83 1003.7
20211016173304 21 272 0.0 0.0 0.00 0.00 0.00 82 1003.6
20211016172804 21 288 0.0 0.0 0.00 0.00 0.00 79 1003.7
20211016172306 22 274 0.0 0.0 0.00 0.00 0.00 76 1003.7
20211016171803 23 263 0.0 0.0 0.00 0.00 0.00 73 1003.7
20211016171304 23 252 0.0 0.0 0.00 0.00 0.00 72 1003.7
20211016170804 23 239 0.0 0.0 0.00 0.00 0.00 73 1003.7
20211016170303 23 249 0.0 0.0 0.00 0.00 0.00 71 1003.7
20211016165803 24 247 0.0 0.0 0.00 0.00 0.00 70 1003.7
20211016165306 24 223 0.0 0.0 0.00 0.00 0.00 70 1003.8
20211016164803 24 193 0.0 0.0 0.00 0.00 0.00 70 1003.8
20211016164303 24 241 0.0 1.6 0.00 0.00 0.00 69 1003.8
20211016163803 25 220 0.0 0.0 0.00 0.00 0.00 69 1004.0
20211016163303 25 202 0.0 0.0 0.00 0.00 0.00 68 1004.0
20211016162803 25 216 0.0 0.0 0.00 0.00 0.00 68 1004.0
20211016162305 24 213 0.0 0.0 0.00 0.00 0.00 69 1003.9
20211016161805 24 238 0.0 0.0 0.00 0.00 0.00 69 1003.8